ECMWFFLT2_sfc_thetae_057.txt.gz
Theta_e
340 341 343 345 346 346 346 346 346 345 345 344 344 344 343 343 342 342 342 341 340 338 335 333 330 329 330 330 331 331 332 331 328 326 323 322 323 324 324 325 326 326 326 325 324 323 322 321 320 319 320 323
336 339 341 343 343 343 343 345 345 345 345 344 344 343 341 339 340 341 341 341 339 337 335 334 331 329 329 328 329 329 330 329 327 324 323 322 322 322 322 323 323 324 324 323 322 321 320 319 318 318 319 321
338 333 337 338 339 340 342 342 343 343 340 340 340 338 336 335 335 336 336 338 337 335 334 333 332 330 328 326 326 327 328 329 328 327 325 324 324 323 322 322 322 323 322 321 320 319 318 316 316 316 319 321
341 332 330 333 335 336 338 339 338 337 336 335 333 332 330 328 331 330 333 327 333 332 332 330 329 331 329 328 327 325 325 327 327 327 325 324 323 323 322 322 321 321 321 319 318 316 315 314 314 317 319 321
340 336 328 329 329 330 333 334 333 333 327 326 325 327 326 328 335 335 336 337 336 327 334 325 325 330 329 327 326 324 323 323 323 323 322 321 319 318 316 315 316 316 317 316 315 314 312 311 314 316 317 319
339 337 334 340 339 337 333 328 326 331 335 330 334 324 332 336 334 335 335 333 331 334 332 329 323 326 330 328 326 325 323 323 322 322 321 319 318 316 312 309 307 308 310 311 311 310 309 310 312 313 315 316
339 338 338 340 339 336 329 331 333 334 333 335 334 336 337 335 336 336 334 333 332 332 324 328 323 326 329 329 326 324 323 322 322 321 320 318 316 313 310 308 307 307 307 306 306 306 307 307 308 309 311 313
338 338 338 339 339 336 336 335 335 335 334 333 334 335 336 336 335 334 333 327 324 326 331 327 322 322 322 322 320 319 321 321 320 319 318 315 312 310 308 308 307 306 306 305 305 304 304 304 304 305 307 308
335 338 338 338 338 337 336 335 335 335 334 333 334 334 335 335 335 334 332 331 332 332 332 330 330 328 325 323 319 315 316 314 313 312 312 311 310 309 308 307 306 306 304 303 303 301 301 301 301 301 302 304
328 335 338 337 337 336 335 336 335 334 334 334 334 334 334 334 333 332 331 331 332 331 331 330 329 327 324 322 319 317 317 317 315 313 311 310 309 307 307 305 305 304 303 301 300 299 299 299 298 299 299 300
325 331 337 337 337 336 335 336 334 333 334 334 334 333 332 333 332 332 331 330 332 331 331 329 329 327 324 322 320 318 317 317 315 313 311 310 308 306 305 304 304 302 301 300 299 298 298 297 297 297 297 297
327 329 334 336 336 336 333 333 334 334 334 335 333 332 332 332 332 331 330 330 331 332 331 329 329 327 326 324 322 320 318 317 316 313 311 309 307 305 305 303 302 301 300 299 299 298 297 297 296 295 295 295
327 330 332 335 336 336 331 335 334 334 333 334 333 332 332 332 332 331 330 330 330 332 330 329 328 327 326 325 323 320 318 317 315 312 310 308 306 305 304 302 301 300 300 298 298 297 296 295 295 294 294 294
326 329 330 332 334 334 328 334 334 332 332 331 332 331 332 332 333 332 330 330 329 330 329 329 328 327 326 324 323 321 318 318 315 312 310 308 306 304 303 302 301 299 298 297 296 296 295 294 293 294 293 293
326 328 330 331 332 331 331 331 330 331 332 331 331 330 330 331 332 331 331 330 329 328 329 328 327 327 326 324 324 321 319 318 315 312 310 307 304 303 302 301 300 298 297 296 295 295 294 293 294 293 293 293
323 327 329 329 328 328 329 329 330 330 328 326 329 329 328 331 331 330 329 329 328 327 327 326 325 325 324 323 324 321 319 316 314 312 310 307 305 304 303 301 299 298 296 295 294 294 293 293 293 292 293 292
323 327 326 326 327 325 325 326 328 329 327 327 327 328 328 330 330 329 328 328 327 323 325 324 322 323 321 321 320 320 318 316 315 312 309 306 305 303 301 299 297 297 295 293 293 292 292 292 291 292 292 292
323 325 324 323 323 322 322 324 324 324 324 324 326 327 327 329 329 328 329 327 324 324 323 322 321 320 319 319 319 319 317 315 313 311 307 304 302 302 300 297 296 294 292 292 292 292 292 292 291 291 291 290
322 322 321 321 319 319 320 320 321 321 321 323 323 324 324 324 324 326 327 327 324 321 320 320 319 318 317 317 317 316 315 314 313 310 306 303 301 301 299 296 295 293 292 292 292 292 292 292 292 292 291 291
320 319 318 317 316 316 315 317 317 318 320 319 320 320 320 321 320 321 323 325 324 321 319 317 315 314 315 315 315 314 314 313 310 308 306 303 301 298 296 294 293 293 292 292 292 293 292 292 292 291 291 291
313 314 313 313 314 315 314 313 313 314 315 317 317 317 318 319 319 320 320 319 320 323 319 317 314 313 313 313 313 314 313 311 310 306 304 302 301 298 295 294 293 293 292 292 291 291 290 290 290 290 290 290
310 310 310 309 310 310 310 310 310 311 313 314 316 315 315 316 317 318 317 315 315 315 316 314 313 313 311 311 311 311 311 309 308 306 303 300 299 297 295 293 292 292 291 291 290 290 289 289 289 289 289 289
307 306 306 307 308 308 308 307 308 308 310 311 311 311 311 313 315 314 313 313 312 311 311 311 310 310 310 309 307 307 306 306 305 303 301 298 297 296 295 294 293 292 291 290 290 289 288 289 288 289 288 288
307 307 306 306 305 305 304 305 305 306 306 308 310 309 309 310 312 312 311 311 311 310 308 308 307 306 306 306 305 304 304 303 303 301 298 296 295 294 294 293 292 292 290 290 289 289 289 289 289 288 288 287
308 307 305 307 309 306 304 303 304 303 304 305 307 307 308 307 308 309 309 309 308 307 305 305 304 305 304 306 306 305 304 304 302 300 298 296 295 293 292 291 292 292 292 289 288 289 289 289 289 289 288 287
309 309 310 308 306 303 302 301 302 301 301 301 302 304 304 305 306 307 306 307 306 304 303 302 302 302 301 303 304 304 303 303 300 299 297 296 293 294 292 290 292 292 293 290 288 287 287 287 290 291 289 287
309 306 304 303 301 303 298 296 296 298 297 297 298 298 300 303 305 305 303 305 304 303 302 302 301 300 300 301 299 300 300 300 299 298 296 296 293 291 292 291 291 291 293 290 290 290 287 284 285 287 287 288
303 299 298 298 298 296 296 295 294 295 295 296 296 296 297 299 302 303 301 301 302 301 301 301 299 298 297 297 300 301 300 299 298 297 296 296 294 293 289 291 290 290 290 290 289 288 290 286 287 284 284 285
298 297 295 295 295 296 295 295 295 295 294 294 295 295 296 296 298 299 298 298 299 299 299 299 298 297 296 297 299 301 300 299 298 298 297 296 294 294 292 290 289 289 289 292 290 292 286 286 286 288 286 285
298 298 296 296 298 299 298 296 296 298 299 295 297 297 293 293 295 296 296 296 297 298 296 296 295 295 295 296 297 300 300 299 298 297 296 296 296 295 294 293 289 288 287 287 288 288 291 294 294 287 285 285
299 298 299 303 304 304 303 301 299 299 300 300 294 292 292 292 293 294 295 295 294 295 294 294 293 293 295 295 296 297 297 296 296 296 296 296 297 296 295 294 292 289 287 286 286 286 287 287 286 290 285 283

ECMWFFLT2_sfc_thetae_060.txt.gz
Theta_e
341 343 345 346 347 346 346 346 346 345 345 344 344 344 343 343 342 341 337 335 333 332 333 333 333 334 334 333 331 329 328 328 329 329 329 330 330 330 330 330 330 329 328 327 326 325 325 325 325 324 325 329
337 340 343 343 343 344 344 345 345 345 345 344 343 343 341 340 339 340 337 335 333 332 331 330 330 332 332 331 329 327 326 326 326 326 327 327 328 329 329 328 328 327 326 325 324 324 324 324 324 324 325 328
344 334 339 340 340 341 342 343 343 343 341 341 340 338 336 336 335 334 334 335 334 332 330 329 329 329 330 331 330 328 327 327 327 325 326 327 328 328 328 327 326 325 324 323 323 322 322 323 322 323 325 328
347 334 331 336 337 338 340 340 340 338 336 335 332 331 332 331 334 330 332 326 331 329 329 327 326 329 329 330 330 329 328 327 326 325 325 326 326 326 325 324 323 323 322 322 321 320 321 321 322 325 327 327
347 343 329 332 331 333 335 335 335 334 327 326 325 328 327 331 339 337 334 333 332 326 330 322 323 327 326 327 327 326 325 324 323 323 323 323 323 322 320 317 317 317 318 318 318 318 318 318 324 325 326 326
346 344 338 346 345 345 338 330 327 335 340 333 338 325 335 340 338 338 337 334 331 330 329 327 321 323 325 325 325 323 323 323 322 322 321 320 319 318 316 316 316 315 313 313 315 315 315 320 322 323 324 325
345 343 344 345 345 343 334 336 339 341 339 341 340 341 340 337 339 338 336 335 334 331 324 328 321 322 324 325 324 323 322 322 322 321 319 318 316 315 314 315 315 315 315 314 312 313 316 317 318 320 321 322
344 344 344 343 344 342 341 339 340 339 340 340 340 340 340 339 339 337 336 326 324 326 330 326 320 320 321 322 321 320 320 320 320 319 317 315 315 314 314 314 312 313 312 312 313 314 314 314 315 316 318 319
341 342 342 344 343 342 342 341 339 339 339 339 340 340 339 339 338 337 334 332 331 333 331 327 325 323 322 322 320 317 318 315 315 314 315 315 314 314 314 313 312 311 310 310 310 310 311 312 313 314 315 317
340 341 341 340 341 342 341 340 340 338 337 337 339 339 339 339 337 336 333 334 334 333 332 331 327 325 321 319 319 317 316 316 317 316 316 315 314 312 312 310 310 309 308 307 307 308 308 309 311 312 312 314
335 338 341 341 342 340 339 340 338 337 338 337 337 337 337 337 336 336 333 332 334 332 332 331 328 323 319 318 318 318 317 317 317 315 314 313 312 311 310 308 308 307 306 306 306 306 306 306 308 309 310 311
332 334 338 340 339 339 338 338 338 338 338 338 337 336 336 336 337 335 333 333 332 332 331 330 328 323 319 319 319 319 319 317 315 313 312 312 311 309 308 307 306 305 304 304 304 304 304 305 305 306 308 308
331 332 334 338 339 340 334 339 339 340 338 338 337 336 336 337 336 336 334 333 332 332 330 330 326 323 320 321 321 320 318 317 314 312 311 311 310 309 307 306 305 303 302 302 302 302 302 303 303 304 305 306
333 333 333 335 337 339 338 339 338 339 338 340 338 336 336 336 336 336 335 334 334 332 330 329 327 324 322 321 321 319 318 316 313 311 310 310 309 308 306 304 303 302 302 301 301 300 300 300 301 302 302 303
332 334 333 333 335 337 337 338 339 338 338 338 338 337 336 337 337 336 336 333 334 333 330 328 325 325 323 320 319 319 318 316 313 311 309 309 307 306 304 302 302 301 300 300 299 299 299 299 299 299 300 301
331 331 333 334 334 335 337 338 338 338 338 335 336 336 336 337 337 336 336 335 333 332 329 327 326 326 324 321 320 319 317 314 313 312 309 308 307 306 304 302 301 300 299 298 298 299 298 298 298 298 298 298
329 331 331 332 332 334 336 336 336 335 335 337 337 336 335 336 336 336 336 336 333 333 332 328 326 325 325 323 321 319 317 315 313 310 308 306 305 303 303 302 300 300 299 298 297 298 297 297 297 298 298 298
326 328 330 331 332 332 333 335 334 333 334 335 335 335 335 335 336 336 336 336 334 333 331 329 327 326 324 324 322 319 316 312 310 308 306 304 302 301 300 299 299 297 297 296 297 297 297 297 297 297 297 297
323 327 328 329 330 331 331 329 331 333 333 333 333 334 335 334 333 334 334 334 332 331 331 329 327 326 324 323 320 317 315 311 309 308 305 303 300 299 299 299 298 298 296 296 296 296 296 296 296 296 296 297
321 323 327 327 324 329 331 329 329 330 330 331 332 332 333 333 333 333 333 332 331 329 326 326 326 325 323 320 318 316 316 311 308 306 305 303 300 297 296 297 297 298 297 296 296 297 296 296 296 295 296 296
320 321 324 326 326 327 327 329 329 327 328 328 329 331 331 331 330 332 333 332 331 328 324 321 320 322 321 319 317 316 313 310 309 305 304 302 299 298 296 297 297 297 296 295 295 296 296 296 296 295 295 295
320 321 323 324 323 322 325 326 328 326 324 325 326 327 328 328 326 327 329 329 328 328 324 320 318 318 319 318 316 314 311 310 308 306 303 300 299 297 296 296 296 295 295 295 295 294 295 295 294 294 294 295
319 319 321 321 318 320 323 322 322 323 321 322 323 325 326 326 326 325 325 324 325 325 322 320 318 317 318 317 316 314 311 309 307 305 303 299 297 297 297 296 296 295 295 295 294 293 292 293 293 293 294 294
316 316 317 315 313 314 315 318 318 318 319 318 321 323 323 324 326 324 324 324 323 322 321 320 318 317 316 315 314 312 309 306 305 303 300 297 296 296 297 297 296 295 294 293 293 292 292 292 292 292 293 293
315 313 314 314 313 314 314 314 315 314 314 316 317 318 320 322 322 324 324 322 320 318 315 317 317 316 315 315 313 311 309 307 306 303 299 297 297 295 294 294 296 296 294 291 290 291 291 290 291 292 291 290
315 316 315 315 314 314 313 312 313 313 311 312 312 313 316 318 319 323 322 320 321 317 315 313 313 314 314 313 312 311 310 308 304 301 298 296 294 296 293 293 296 295 294 292 290 288 288 289 290 290 289 289
315 316 316 316 315 312 309 308 308 313 310 307 308 308 311 314 316 318 317 318 317 315 315 313 312 311 312 313 312 310 307 304 301 298 296 296 295 294 294 294 296 296 299 294 293 293 290 287 287 288 287 288
316 317 316 311 310 309 309 307 304 303 302 302 304 306 306 309 312 314 315 314 314 314 313 312 312 311 312 313 312 309 305 302 300 298 296 296 296 295 293 294 295 299 299 297 293 291 293 290 291 286 286 286
313 309 308 304 303 303 304 304 305 303 302 303 303 303 303 307 309 311 311 310 311 311 311 311 310 310 310 309 309 309 306 303 299 297 296 297 296 295 295 294 295 296 298 299 301 297 291 290 290 292 290 286
310 310 308 304 303 303 305 304 303 303 304 302 302 303 303 302 304 307 308 309 310 309 309 310 310 310 309 309 309 309 306 303 300 298 298 298 298 297 299 297 295 295 296 299 298 299 298 299 296 294 288 288
309 308 308 307 308 309 308 307 306 309 310 306 306 304 300 301 301 304 305 306 308 307 306 307 308 309 309 309 308 308 306 302 300 299 300 300 300 300 300 300 296 296 295 294 295 297 297 296 294 296 289 288

ECMWFFLT2_sfc_thetae_063.txt.gz
Theta_e
343 345 346 347 347 346 346 346 345 345 344 344 343 343 342 339 336 335 334 335 335 335 335 335 334 333 332 333 333 333 333 333 332 331 330 330 331 332 331 331 331 330 330 329 329 329 329 328 327 326 326 327
339 341 344 345 344 345 345 345 345 344 344 343 343 341 340 338 336 335 333 334 334 334 334 334 332 330 330 330 331 331 331 331 331 330 330 329 330 330 330 330 330 329 328 328 327 327 328 327 326 325 325 325
344 335 340 342 342 343 343 343 343 344 341 340 340 337 335 334 332 332 332 333 331 332 332 332 331 329 328 328 328 328 329 331 331 330 329 328 329 329 329 329 328 327 327 326 326 326 326 325 324 323 324 324
347 334 333 337 339 340 341 341 340 338 336 335 333 332 330 329 331 328 329 324 328 328 329 329 327 330 329 328 328 328 329 331 330 330 329 328 328 327 326 326 325 324 325 324 324 325 324 323 323 326 326 325
345 343 331 333 332 334 337 336 335 333 327 326 326 328 327 328 331 330 329 327 327 324 328 322 324 330 329 328 327 327 328 329 329 328 327 326 325 324 322 320 319 320 321 322 322 323 322 321 325 326 326 326
345 345 340 344 345 344 336 330 328 336 339 334 340 327 333 337 333 333 333 329 328 326 326 324 321 324 326 325 325 324 326 327 326 325 325 324 323 322 321 320 319 318 318 319 320 320 319 322 324 325 325 325
346 343 344 345 344 344 335 337 340 342 339 341 341 339 339 336 335 335 333 331 329 327 321 324 320 322 324 324 324 323 323 324 324 323 322 321 319 319 320 318 319 318 319 319 316 316 320 321 322 324 324 323
345 345 343 344 344 342 342 340 342 341 341 340 340 339 338 338 337 335 332 323 322 322 324 323 319 320 321 321 320 319 320 320 320 319 318 317 318 318 315 314 314 315 316 317 318 319 319 319 321 323 323 322
343 344 345 344 343 344 342 341 340 340 341 340 341 339 338 338 337 336 332 328 326 325 322 321 320 319 318 317 317 315 314 313 314 313 315 315 316 315 316 315 314 314 314 314 315 316 317 317 319 320 321 320
342 341 342 342 342 342 342 342 340 340 341 340 341 340 338 339 337 334 331 329 330 328 324 320 318 318 317 317 316 315 313 313 316 318 318 317 316 314 313 312 311 311 311 312 312 312 315 316 316 317 318 319
341 341 341 341 344 341 341 341 340 340 340 340 339 340 339 338 336 334 331 331 331 329 326 323 322 320 320 319 317 317 317 318 319 318 316 315 314 312 311 310 310 309 310 310 310 311 312 313 314 315 315 317
337 338 339 340 340 342 338 340 339 338 339 340 339 339 338 335 337 334 332 331 331 330 330 329 326 322 320 319 319 320 320 319 318 316 315 314 313 311 310 308 308 307 308 308 309 309 310 311 312 313 312 314
337 337 337 339 339 340 337 340 340 340 339 338 338 338 338 338 337 335 333 332 332 332 330 330 326 321 320 321 320 320 319 318 316 315 314 313 312 311 309 307 306 305 305 306 307 307 308 309 310 311 311 312
334 335 336 336 338 339 339 340 340 340 339 339 338 337 337 337 336 335 334 333 332 331 330 330 326 321 321 321 320 320 318 317 315 314 313 312 311 309 308 306 305 304 303 303 304 305 306 308 308 308 309 310
333 335 335 336 337 338 338 339 340 339 339 338 338 337 337 337 337 335 336 334 332 331 330 330 326 322 321 321 320 320 318 317 315 314 312 311 309 308 306 304 304 303 302 302 302 302 303 304 306 306 306 307
333 333 335 336 335 336 337 338 339 339 339 337 339 338 338 337 337 336 335 335 334 332 330 329 326 324 323 322 320 319 318 315 314 313 312 311 309 308 305 303 303 302 301 300 300 300 300 302 303 304 304 304
331 332 332 332 335 335 337 336 337 338 338 338 339 338 337 337 336 336 335 335 334 333 331 330 328 326 325 322 320 319 316 315 313 311 310 308 307 306 304 302 302 303 300 298 298 299 299 299 299 300 301 301
328 328 331 332 331 334 334 335 335 336 337 338 338 338 337 337 336 336 336 336 334 332 331 328 327 325 323 322 320 318 316 314 312 310 308 306 306 304 303 301 301 299 299 298 298 298 298 298 298 299 298 298
328 328 328 329 331 331 334 334 334 335 337 338 338 337 336 336 337 336 336 337 334 332 331 327 326 326 326 325 319 317 315 314 311 309 306 305 304 303 302 301 300 299 298 297 297 297 297 297 298 298 297 298
328 328 328 328 324 329 331 331 333 334 336 336 337 336 335 336 336 337 336 336 336 334 332 328 325 325 325 322 318 316 314 312 309 307 306 305 303 301 300 299 299 299 297 297 296 297 297 297 297 296 297 297
326 326 327 327 327 327 330 330 331 332 335 335 335 335 335 336 336 335 336 336 334 333 331 330 327 324 323 321 317 315 312 311 309 306 306 303 302 302 299 299 299 298 298 297 297 297 297 297 296 296 296 296
323 323 323 324 325 326 327 329 330 332 332 332 332 333 333 334 334 333 335 334 333 332 331 329 328 325 323 320 317 315 312 310 308 306 304 300 301 301 299 298 297 297 297 297 297 296 296 296 296 296 296 296
321 321 320 320 322 324 326 327 329 330 329 329 330 331 332 332 332 331 334 333 331 329 327 326 325 325 322 319 316 313 311 309 308 306 303 301 299 300 300 298 298 296 297 296 296 295 294 294 294 295 295 296
320 319 318 318 321 321 322 324 325 328 328 327 327 329 330 331 330 330 331 333 332 329 325 322 321 322 321 319 315 312 309 307 307 304 302 300 298 298 298 298 297 297 295 294 293 293 293 294 294 294 294 294
318 317 318 319 319 317 319 321 324 324 325 325 326 327 328 328 328 329 328 328 330 328 322 321 320 320 318 317 314 312 310 308 307 304 301 299 299 298 296 296 296 296 295 292 291 292 292 291 292 292 292 292
318 318 317 317 317 317 319 320 321 321 322 323 324 325 326 327 328 329 327 325 325 324 323 321 319 319 317 316 314 313 311 309 305 303 300 299 297 298 296 294 295 295 294 291 289 287 288 289 290 291 290 290
317 317 318 318 319 318 318 321 323 323 323 322 321 322 322 323 323 325 326 324 323 322 321 320 319 317 317 316 314 311 310 309 305 301 299 298 297 295 296 295 296 294 295 292 291 291 288 286 286 288 288 289
318 318 318 319 320 320 319 317 314 314 317 319 319 318 318 319 319 322 323 323 322 322 321 320 319 318 317 315 314 312 309 306 303 300 298 298 297 296 293 293 293 295 296 295 291 287 289 288 289 285 285 286
318 318 317 317 314 315 312 312 312 312 312 314 314 317 314 314 315 318 319 321 321 321 320 319 319 317 316 315 313 311 308 305 302 300 300 299 297 296 294 292 293 295 297 299 296 295 292 289 289 291 290 286
317 316 315 311 310 310 311 310 309 309 310 310 312 314 314 311 313 315 316 318 318 320 320 319 318 317 315 314 312 311 309 306 304 300 299 299 298 297 297 295 293 293 298 301 298 303 303 301 294 293 288 288
316 315 314 313 312 311 311 311 311 313 315 314 312 312 310 311 310 311 313 315 316 317 317 319 318 317 316 314 312 309 308 305 302 300 300 300 299 298 298 298 295 295 297 298 300 302 301 300 298 296 289 288

ECMWFFLT2_sfc_thetae_069.txt.gz
Theta_e
342 343 345 345 345 344 343 344 343 343 340 338 338 338 338 337 337 337 336 335 335 335 335 334 334 333 333 333 333 333 333 333 333 333 333 334 333 333 333 333 333 332 333 332 331 331 328 327 326 324 322 320
339 341 344 343 343 343 343 342 343 341 339 338 337 337 337 336 336 336 335 335 335 335 334 334 333 333 332 333 333 333 332 331 331 331 331 332 332 332 332 332 331 331 332 331 330 330 328 327 325 324 322 318
337 336 340 341 340 341 342 341 341 340 336 336 335 334 332 331 332 332 333 335 334 334 334 333 333 333 333 333 333 332 331 331 330 330 330 331 331 331 331 330 330 330 330 330 329 328 326 324 323 322 320 318
338 333 333 337 338 338 339 339 338 335 333 330 328 327 327 326 325 324 324 324 325 329 329 329 327 332 333 332 332 331 331 330 329 330 330 329 329 328 327 327 327 327 328 329 327 326 324 322 320 317 317 316
338 335 332 333 332 334 336 335 334 332 326 323 323 323 322 323 322 322 322 322 322 322 322 322 324 331 331 331 330 330 330 329 328 329 328 327 326 326 324 323 322 323 325 326 326 324 321 318 316 315 315 315
339 335 335 337 336 336 333 329 327 327 326 325 322 320 322 322 321 322 322 322 325 321 322 322 322 325 330 330 330 329 329 328 328 327 326 325 325 324 322 318 311 312 317 320 321 320 317 315 314 314 314 314
338 337 338 337 337 334 330 329 329 328 326 324 322 321 321 321 322 322 321 321 321 320 319 321 321 324 327 329 328 328 328 327 327 326 324 323 322 321 317 309 307 308 309 311 315 314 314 313 312 312 312 312
338 338 339 338 337 335 333 333 333 330 327 324 323 323 322 322 322 321 320 321 321 320 318 319 320 322 324 325 324 324 325 325 325 323 322 320 317 312 309 306 306 306 306 308 310 311 312 312 311 311 310 310
337 338 338 338 338 336 335 336 335 333 329 325 325 326 326 324 321 320 319 318 317 317 316 316 316 317 317 317 316 316 314 314 313 310 308 307 306 304 305 305 305 306 306 306 308 309 310 310 310 309 309 309
337 338 337 338 338 337 337 337 336 335 332 328 327 329 327 322 320 318 318 317 316 315 314 313 312 312 312 312 313 313 311 308 308 309 307 305 305 304 304 304 305 305 305 305 306 307 308 309 308 308 308 308
338 338 338 338 338 337 336 337 336 335 334 331 329 330 325 322 319 317 317 316 315 314 312 311 310 309 309 310 309 308 307 307 308 308 306 305 304 303 304 303 303 303 304 304 305 306 306 306 307 307 307 308
338 338 337 337 335 337 335 336 335 335 335 333 332 331 327 322 320 317 316 315 314 313 311 309 308 308 308 307 307 306 306 307 309 306 305 304 303 303 303 303 302 302 303 303 304 304 305 306 306 307 308 309
337 337 337 337 337 336 332 336 335 335 334 333 333 332 329 325 321 318 317 316 314 312 310 310 309 308 307 306 305 305 307 310 307 305 304 303 302 301 300 300 300 300 300 301 302 302 302 303 306 308 308 309
335 335 335 336 336 337 333 336 335 333 334 333 333 332 330 328 324 320 319 317 314 311 310 311 310 309 308 306 305 307 310 309 306 304 303 302 301 299 299 299 299 299 298 299 300 300 300 300 303 306 307 307
334 333 333 334 335 336 336 337 335 333 334 333 332 332 331 331 327 323 322 320 315 312 312 312 310 309 310 308 309 311 310 309 307 305 303 302 299 298 298 297 297 297 297 296 298 298 298 298 301 302 304 305
332 332 332 331 333 334 335 336 336 335 334 331 333 332 332 331 330 326 326 324 319 315 314 314 311 311 311 310 311 311 309 308 307 305 304 301 299 297 297 296 295 296 295 294 295 296 296 296 297 298 300 301
331 331 331 330 330 331 333 334 334 334 334 333 333 332 332 331 331 329 327 327 323 319 320 317 313 312 312 312 312 310 309 308 306 304 302 300 298 296 296 295 294 295 293 293 293 294 294 294 294 295 296 296
329 330 330 329 330 328 331 332 332 333 334 333 333 333 332 332 331 331 329 328 327 325 325 320 315 314 314 314 312 310 309 307 305 303 301 300 298 298 295 294 293 293 292 291 291 292 292 292 292 293 294 294
327 327 329 328 328 328 328 329 331 332 333 333 333 333 333 333 332 331 331 329 329 328 327 321 317 316 316 314 312 310 308 307 305 303 301 299 297 296 294 293 293 292 291 291 291 291 292 291 291 291 291 293
326 327 328 328 325 328 327 326 327 329 332 332 333 333 333 333 332 331 332 330 329 328 327 324 318 318 317 314 311 309 308 307 304 303 301 300 298 295 294 293 292 291 290 290 290 290 290 291 292 291 290 291
324 325 325 326 327 328 326 326 326 326 328 331 331 332 332 332 332 332 332 331 330 329 327 326 322 319 317 314 312 309 308 307 306 303 301 299 298 297 294 293 291 290 290 290 290 290 290 290 291 290 290 290
323 323 322 322 324 323 326 326 326 326 326 327 330 331 332 332 332 331 332 331 331 329 328 327 325 320 317 314 312 310 309 307 306 304 301 299 298 297 295 293 291 290 290 291 290 289 289 289 289 289 290 291
322 321 319 318 319 320 323 324 325 326 326 326 327 328 330 330 331 330 332 330 330 329 328 327 326 321 318 314 312 310 308 307 305 303 302 299 298 297 295 294 292 291 291 291 290 289 288 288 288 289 289 289
320 318 318 317 313 314 316 319 321 323 325 325 325 325 327 328 330 330 330 330 329 330 328 327 325 322 319 315 312 310 308 306 304 302 301 299 297 296 295 294 293 293 291 290 289 288 287 287 287 287 288 287
321 320 317 315 317 318 316 315 316 319 320 322 324 324 326 326 328 330 329 329 329 330 326 328 325 323 319 316 313 311 308 307 305 303 301 300 298 296 294 293 293 292 291 289 288 287 286 286 287 289 286 286
321 321 321 320 319 319 315 313 314 316 317 320 320 321 322 324 327 329 330 326 328 328 328 327 325 322 319 317 314 312 310 307 305 303 301 299 297 296 294 293 293 292 291 289 287 285 285 286 285 286 285 286
320 320 318 318 312 315 309 309 312 312 315 315 318 319 320 321 324 326 329 329 328 329 328 327 325 323 321 317 314 312 310 307 305 303 301 299 297 295 295 294 294 292 293 289 288 288 285 282 282 285 284 284
316 313 310 309 308 309 312 309 307 310 309 313 314 317 318 320 322 324 325 327 328 328 328 327 326 324 321 318 315 314 310 307 305 303 301 299 298 296 293 292 292 293 293 291 288 285 286 283 283 280 281 282
310 310 308 307 307 306 306 307 308 308 309 312 314 317 318 320 321 323 323 325 327 324 326 325 325 323 321 319 316 314 311 308 306 303 301 300 298 297 295 292 292 292 293 292 293 291 285 283 284 283 281 282
311 311 310 308 308 307 306 308 307 310 312 311 312 316 315 314 320 321 322 324 326 326 324 323 323 323 321 319 317 315 313 310 306 303 301 300 299 297 297 295 293 291 293 294 292 293 295 289 288 285 284 283
310 310 310 310 311 310 309 309 308 306 306 309 307 310 312 314 315 319 319 319 323 322 322 324 322 321 321 320 317 314 313 310 307 305 302 300 300 299 299 297 294 292 292 294 293 293 294 295 292 289 284 281

ECMWFFLT2_sfc_thetae_072.txt.gz
Theta_e
341 343 344 344 344 344 344 341 339 339 339 339 338 338 338 338 338 338 336 336 336 335 335 334 334 334 336 334 334 333 333 333 333 335 335 335 333 333 334 334 333 333 332 332 331 330 329 327 327 324 322 320
338 340 343 343 342 342 342 341 340 339 339 339 338 337 336 335 336 337 336 336 335 334 334 335 334 333 333 332 332 332 331 331 333 333 334 333 332 333 333 333 333 332 332 331 329 328 327 326 325 323 322 319
336 336 339 340 340 340 341 340 339 339 337 337 336 334 332 332 332 332 334 336 335 334 333 333 334 333 333 332 332 331 330 330 332 332 332 331 331 331 332 332 332 331 330 329 327 326 324 323 321 320 318 318
335 333 333 336 337 338 339 338 336 335 333 332 330 329 328 327 325 324 324 325 326 330 331 330 328 332 332 331 331 330 330 330 331 331 330 328 328 327 328 330 330 329 329 327 326 324 322 320 318 315 314 316
337 334 332 332 332 333 334 333 332 332 327 324 324 324 323 323 322 321 322 322 323 324 324 324 325 331 331 331 330 329 329 329 329 329 328 327 325 325 323 321 322 324 326 325 324 321 318 316 313 312 313 315
337 334 334 335 334 334 331 328 326 325 325 325 323 321 322 322 321 320 320 320 324 322 324 324 323 326 330 330 330 329 328 329 328 328 327 325 324 322 320 315 310 312 318 320 319 317 315 312 311 311 311 312
336 336 336 336 337 335 327 327 325 324 323 322 322 322 321 320 320 320 319 320 321 321 321 322 322 324 328 330 329 329 329 328 327 327 325 324 322 320 316 309 308 309 309 310 314 312 311 310 309 310 310 311
336 337 337 337 336 334 331 327 325 323 322 322 321 321 320 320 320 319 319 321 322 321 320 321 321 323 325 326 324 324 325 326 326 324 323 322 319 313 309 306 307 308 308 309 309 309 309 308 308 308 308 309
336 338 338 337 335 334 331 329 326 323 322 321 320 320 320 320 319 318 318 317 317 317 318 317 319 320 319 320 318 319 316 316 313 309 307 307 306 305 306 306 306 307 307 308 308 308 308 307 307 307 308 309
336 338 337 337 335 334 333 332 329 325 322 321 320 320 320 319 318 317 317 316 315 315 316 315 317 316 315 314 314 313 313 307 306 305 304 304 304 303 304 304 304 305 306 306 306 307 307 307 306 306 307 309
337 338 338 337 336 334 334 335 331 327 324 321 321 322 320 319 318 317 316 315 314 314 314 314 314 313 313 314 313 311 308 306 306 304 303 302 302 303 303 303 303 304 304 304 305 305 306 306 306 306 308 309
336 338 338 338 334 335 333 335 333 330 325 323 323 324 320 318 318 317 316 315 313 313 312 313 312 312 311 311 311 307 306 306 305 303 302 302 302 303 302 302 302 303 303 303 304 305 305 305 305 306 307 308
337 338 338 337 336 335 331 335 335 334 329 325 325 325 320 318 317 317 316 314 313 311 310 310 309 309 310 310 309 305 306 306 304 302 302 301 301 301 301 300 301 301 301 302 302 303 304 304 305 306 307 307
338 338 337 337 336 336 332 336 336 335 333 328 327 327 322 319 317 317 316 314 312 310 309 308 307 307 307 308 305 304 307 305 303 302 301 300 300 300 300 300 300 300 300 300 300 301 302 302 303 305 306 306
337 337 337 337 337 337 335 336 335 334 334 331 329 329 324 321 318 317 316 314 312 309 308 307 307 306 306 306 304 305 308 305 303 302 301 300 299 299 299 298 298 299 299 298 299 299 299 300 302 303 304 304
335 336 337 337 337 336 336 336 336 334 334 332 332 331 327 323 320 317 316 314 312 308 307 307 306 306 305 305 303 308 307 304 303 301 300 298 298 298 298 296 296 297 298 297 297 297 297 297 299 298 300 301
334 335 336 336 336 336 335 336 336 334 334 334 333 332 329 326 322 318 317 315 313 308 308 307 306 306 305 305 305 308 306 304 302 300 298 297 297 296 296 295 295 296 295 295 294 295 294 295 295 296 297 298
333 334 334 334 336 334 335 336 335 334 335 334 334 333 332 329 325 321 321 317 313 310 309 309 307 306 305 305 308 307 306 304 302 299 298 296 296 297 296 295 294 294 293 291 292 292 292 293 294 295 295 295
332 332 332 331 332 333 334 334 335 335 335 334 334 333 333 331 328 324 324 321 316 311 311 311 309 308 307 308 309 307 306 304 301 299 297 296 296 296 296 295 294 294 293 293 292 291 292 292 293 294 294 294
331 331 331 330 326 330 331 332 333 334 334 335 334 333 333 332 331 327 326 325 321 314 313 313 311 309 308 310 311 310 307 305 302 299 298 297 297 295 294 294 293 293 293 293 291 290 290 291 292 293 293 293
328 328 329 329 328 328 328 330 331 332 333 333 334 334 333 333 331 329 328 327 325 321 318 317 314 313 311 312 312 310 308 306 304 300 299 298 297 297 294 293 292 292 292 292 291 289 289 289 291 291 292 292
326 326 327 327 327 325 326 326 328 329 331 332 333 333 333 333 332 330 330 329 327 326 323 321 317 315 314 313 312 310 308 307 305 302 300 298 297 297 295 293 292 292 292 292 291 290 289 289 289 289 291 292
322 321 323 323 323 323 324 324 324 326 328 331 332 332 333 333 332 330 331 330 328 327 326 325 320 317 315 313 312 310 308 307 304 302 300 298 297 296 295 294 293 292 292 291 290 290 288 287 287 288 289 290
320 319 320 320 315 320 321 323 322 323 326 327 330 331 332 332 332 331 331 331 330 328 327 326 324 318 316 313 312 310 308 306 304 302 300 298 296 295 294 294 293 293 291 290 289 289 287 286 287 288 288 287
321 319 316 314 320 322 322 322 321 321 322 324 327 329 331 331 332 332 331 330 330 329 325 327 326 320 316 314 312 311 309 308 305 303 301 299 297 295 293 292 293 292 292 289 288 288 287 286 288 291 288 287
322 322 322 321 320 321 320 318 318 320 320 322 322 324 328 329 331 332 331 328 330 329 329 327 326 322 317 314 312 311 310 308 305 303 302 299 296 296 294 292 293 292 292 290 288 286 285 285 287 290 288 287
322 323 321 320 315 318 309 310 313 313 314 315 319 320 323 327 329 330 331 330 328 329 329 328 326 324 320 315 312 311 310 308 306 304 302 299 297 294 294 293 293 292 293 290 289 289 286 284 284 287 287 286
320 319 314 313 308 311 314 311 307 309 309 313 315 317 319 323 327 329 330 330 329 328 329 328 327 326 322 317 314 312 310 308 306 304 303 300 299 297 293 292 291 293 293 291 289 286 288 286 285 283 284 284
313 312 309 306 306 306 307 307 306 307 308 312 316 318 317 321 323 327 328 329 330 327 329 328 327 326 324 320 316 314 312 309 308 305 303 301 299 297 296 292 292 292 292 292 294 291 285 285 284 284 285 284
313 314 314 309 310 309 307 310 308 311 313 312 314 317 319 315 319 323 325 327 328 328 327 328 327 325 323 321 318 315 314 311 309 306 303 301 300 298 298 296 292 291 292 292 292 293 295 290 289 287 285 284
312 312 312 313 315 314 313 313 312 310 307 310 309 308 314 318 317 319 322 323 325 326 325 326 326 326 324 321 319 315 315 312 309 308 305 302 301 300 299 297 293 292 291 292 292 293 293 294 293 291 286 285

ECMWFFLT2_sfc_thetae_075.txt.gz
Theta_e
340 342 344 344 343 342 341 340 340 340 339 339 338 338 337 339 339 339 338 336 336 335 334 334 334 335 335 333 333 333 335 335 335 336 336 336 335 335 335 334 334 333 333 332 331 330 329 328 327 325 324 324
338 340 342 342 341 341 340 340 340 339 339 339 338 338 337 336 336 338 338 337 335 334 333 335 334 333 332 332 332 333 335 334 334 333 334 334 334 334 334 333 333 332 331 330 329 328 327 327 325 324 323 321
336 335 338 339 339 339 339 339 339 339 337 337 336 335 333 332 333 333 334 337 336 335 334 334 334 333 332 332 332 333 334 333 333 333 333 334 334 333 332 332 332 331 330 328 327 326 324 323 322 321 320 320
334 333 332 335 336 336 337 337 337 336 333 332 329 329 329 328 326 325 325 325 327 331 331 330 327 332 333 332 331 331 332 332 331 331 332 333 333 333 332 332 331 329 329 327 325 323 321 319 318 315 317 319
336 334 331 331 331 332 333 332 333 333 327 324 324 323 323 323 321 320 321 322 322 323 323 324 325 332 332 331 330 331 330 331 330 330 331 331 331 330 329 327 327 326 327 325 324 321 317 315 313 314 316 317
337 335 333 333 333 332 330 327 326 326 325 325 321 320 321 319 320 319 318 319 324 320 321 322 323 325 330 331 330 330 330 330 329 329 329 329 327 325 322 317 313 314 319 320 320 317 314 311 311 313 314 316
336 337 337 335 335 331 326 326 325 324 323 321 320 318 318 317 318 317 317 317 320 320 320 321 321 324 328 330 329 329 330 329 327 327 327 325 322 319 316 309 308 308 308 309 313 311 310 309 309 311 313 314
336 337 337 337 336 331 327 324 324 322 322 321 320 320 318 317 317 317 318 321 322 321 319 320 321 323 325 325 324 324 325 326 325 323 321 319 315 312 309 307 307 308 307 307 307 308 307 307 307 308 310 312
335 337 337 337 336 332 326 323 322 322 321 321 320 319 318 317 316 316 317 317 318 317 318 317 319 320 319 319 317 318 312 308 308 307 305 306 307 305 306 306 306 307 307 306 306 306 306 306 306 307 308 310
335 336 336 336 335 332 328 325 322 321 320 320 319 318 318 317 316 316 316 316 316 316 317 317 315 316 315 315 313 313 307 305 304 303 304 304 304 304 304 305 305 304 306 306 305 306 305 306 306 307 307 308
335 337 337 336 335 333 330 327 324 321 319 319 319 318 318 317 316 315 314 315 315 316 316 316 314 313 312 314 312 309 306 304 303 303 303 303 303 303 304 303 303 303 303 304 305 304 304 305 305 306 307 307
336 337 337 336 333 333 331 329 325 323 320 319 319 319 318 317 317 316 314 314 314 314 314 315 314 313 311 311 309 305 305 303 302 301 302 303 302 303 303 303 302 303 303 302 303 304 303 304 305 305 306 307
337 337 337 336 334 334 329 332 329 325 321 319 319 319 318 317 316 315 314 313 313 312 314 312 312 311 311 311 308 305 305 303 302 301 302 302 302 302 302 302 302 302 301 301 302 303 303 302 303 303 306 307
336 337 336 336 335 335 331 334 332 328 323 320 320 320 318 317 317 316 315 314 312 312 312 310 309 310 311 310 306 304 305 303 301 301 300 300 301 301 301 301 301 301 300 300 300 301 302 301 302 301 304 306
336 336 336 336 335 334 333 334 334 331 326 322 321 322 318 317 317 316 315 314 312 311 311 310 309 309 309 308 305 304 305 302 301 300 301 301 301 300 300 300 299 300 300 299 299 298 300 299 301 302 303 304
336 336 336 336 336 335 334 334 335 333 330 323 322 323 319 317 317 316 315 314 312 310 309 309 309 308 308 309 304 305 304 302 301 300 299 299 299 299 299 298 298 298 299 298 297 297 298 298 299 299 301 301
336 337 337 336 336 336 334 334 334 333 333 329 325 325 322 318 317 316 315 314 312 309 308 308 307 307 307 308 304 305 304 302 300 298 297 297 297 297 297 297 296 297 297 297 295 295 295 296 296 296 298 299
336 337 337 337 337 335 335 334 334 333 334 332 329 327 326 322 319 316 317 315 312 310 309 308 307 307 306 306 303 306 303 301 299 298 297 296 297 298 297 297 296 297 296 293 293 293 293 294 294 295 296 296
335 336 336 336 336 336 335 335 334 334 334 333 332 330 329 325 321 318 318 316 314 311 310 308 308 308 308 307 306 307 304 302 299 298 297 297 297 296 296 296 296 297 297 295 294 292 292 293 293 294 294 293
335 335 336 336 331 336 335 334 334 334 334 334 333 332 331 328 324 321 320 318 316 313 310 308 307 307 308 307 308 308 306 303 300 298 298 298 299 297 295 295 295 294 294 294 293 292 292 292 292 293 293 293
333 333 333 334 334 334 334 334 334 335 334 334 333 333 332 331 327 323 322 320 317 314 311 309 307 306 307 307 308 308 306 304 302 300 299 298 299 300 297 296 294 293 293 293 292 291 292 291 292 292 292 292
331 332 332 332 332 330 332 333 334 334 334 334 334 333 332 332 330 326 324 323 320 316 312 310 308 306 306 307 308 308 307 305 303 301 300 298 298 299 297 295 294 293 292 292 292 291 291 291 290 291 292 292
327 328 329 329 329 328 330 331 333 333 333 333 333 333 333 333 332 328 327 325 323 319 315 312 311 309 307 306 308 308 308 306 304 302 301 299 298 298 298 297 295 294 293 292 292 291 290 289 289 290 292 292
323 324 326 325 323 325 326 328 327 330 332 332 332 332 332 332 333 331 329 328 325 323 319 316 314 312 309 307 307 308 307 307 304 302 300 299 297 296 295 295 294 293 293 291 290 290 289 289 288 289 291 290
323 323 324 324 325 325 326 325 325 326 327 329 331 332 332 331 331 332 330 329 328 325 321 321 319 316 313 309 308 308 308 308 306 304 302 300 298 295 294 293 293 294 293 291 289 289 289 289 289 292 291 289
322 324 326 325 326 327 326 323 322 323 324 326 327 329 331 331 332 332 331 327 330 327 326 324 323 320 316 313 310 309 309 309 306 304 302 300 297 296 295 293 293 293 294 293 292 288 287 288 288 289 289 288
322 322 321 323 320 325 319 316 320 320 318 320 323 326 328 330 331 332 331 330 327 329 327 326 325 323 319 315 312 310 310 309 307 305 303 301 298 295 295 294 294 293 297 293 290 290 289 287 288 290 288 288
322 319 315 314 311 312 319 316 312 313 309 314 318 322 324 327 330 331 331 331 330 328 329 327 326 325 321 317 314 312 310 309 307 306 303 301 300 297 293 292 291 294 295 293 292 289 291 287 288 286 288 286
316 313 310 305 305 306 309 308 308 308 312 314 316 319 320 323 326 328 330 331 330 327 329 328 327 326 323 318 315 314 312 311 309 307 305 302 300 297 297 292 292 292 294 294 298 295 286 284 285 287 287 286
315 316 316 311 313 312 309 312 309 312 315 314 314 317 319 319 322 325 327 329 330 330 328 329 328 327 325 321 317 314 314 313 311 308 306 304 302 299 299 297 292 291 293 294 294 295 297 292 293 289 287 287
314 314 314 315 317 317 316 315 315 311 307 313 311 309 316 320 320 322 324 326 329 329 328 329 329 328 326 324 320 315 314 313 312 309 307 305 302 301 299 299 295 293 292 292 293 294 293 294 293 292 287 287

ECMWFFLT2_sfc_thetae_078.txt.gz
Theta_e
340 342 343 343 342 341 341 340 340 339 339 338 338 337 336 339 339 339 338 337 336 335 334 334 333 334 334 333 335 336 335 335 336 337 336 337 336 336 336 336 336 336 335 334 333 331 330 329 329 327 325 323
337 339 342 341 340 340 340 341 340 340 340 339 339 338 337 337 337 338 338 337 335 334 334 335 334 333 333 333 335 335 335 334 335 336 336 336 336 336 335 335 335 334 333 332 331 330 329 328 326 324 323 321
336 334 338 338 337 339 339 339 339 339 337 337 336 334 332 332 333 333 335 337 336 335 334 334 334 332 335 334 336 335 334 333 334 335 335 335 335 335 334 334 333 332 331 330 329 327 326 324 322 322 322 321
335 333 331 334 335 335 337 337 337 336 333 331 328 328 328 326 325 325 324 325 326 331 331 330 327 332 334 334 334 333 333 333 333 335 335 334 334 334 333 332 331 330 329 328 327 325 323 321 320 318 319 321
336 334 330 331 331 331 332 332 333 332 325 323 323 323 322 322 320 320 321 322 322 323 324 324 325 332 333 333 333 333 332 332 332 333 333 333 331 329 327 324 324 325 326 325 324 322 319 317 316 316 317 318
338 335 332 331 330 329 329 327 326 324 322 324 318 320 320 318 319 318 318 320 324 321 323 323 323 325 330 332 331 332 331 331 331 331 331 329 328 326 322 318 312 313 318 320 319 317 314 311 311 314 316 316
337 337 335 333 331 328 325 326 324 322 321 318 318 316 317 316 317 316 316 317 319 319 321 322 322 324 328 330 329 330 330 329 330 329 328 326 324 321 317 310 308 308 306 308 313 311 309 308 308 311 316 317
337 337 337 336 333 327 325 323 323 321 319 318 317 317 317 317 315 315 317 321 322 321 319 320 321 323 324 325 324 322 321 325 326 325 324 321 318 314 310 307 306 307 306 306 306 307 306 306 307 310 313 316
336 337 337 337 334 328 323 322 321 320 320 318 317 316 316 316 314 315 316 315 315 316 317 317 318 319 317 317 313 314 309 308 308 308 306 307 307 306 307 307 306 306 306 306 306 306 305 306 307 308 310 313
335 337 336 336 335 330 325 322 320 320 320 319 318 316 316 316 315 315 315 313 313 315 316 317 315 315 314 313 309 308 305 304 304 304 305 305 305 304 305 305 304 303 304 305 304 304 304 306 306 307 309 310
334 336 337 337 334 331 327 324 320 319 318 319 317 317 316 317 315 314 314 315 313 314 314 316 314 313 313 313 309 306 305 303 302 304 304 304 303 303 304 303 302 303 302 302 304 303 303 303 304 305 306 308
334 336 337 336 333 332 328 325 322 320 319 318 318 317 317 316 316 316 315 314 314 314 312 315 314 313 312 312 307 305 304 302 301 302 303 303 302 303 302 303 301 302 302 301 301 303 301 302 304 303 304 306
335 336 336 336 334 333 327 328 325 322 319 318 317 317 316 316 315 315 315 315 314 313 313 313 312 311 312 310 306 304 303 302 302 302 302 303 303 302 302 302 302 301 301 301 300 302 301 301 301 302 303 304
335 335 335 335 334 334 329 330 328 324 319 318 317 317 316 316 316 316 315 315 313 314 313 311 309 312 311 310 305 304 303 301 301 301 301 301 302 302 302 302 300 301 300 300 299 300 301 301 301 301 302 303
336 335 335 335 335 334 331 332 331 326 322 319 317 318 317 316 316 315 314 314 313 312 312 311 311 311 308 308 304 303 303 300 301 301 301 302 302 302 301 300 299 301 301 298 299 299 299 299 300 301 302 302
336 335 335 335 335 334 333 333 332 330 325 320 319 318 317 316 316 315 314 313 312 313 312 311 310 309 309 308 303 303 302 300 300 300 299 299 299 299 299 299 298 298 301 298 297 297 298 298 299 300 300 301
336 336 335 335 335 334 334 333 333 331 329 325 321 320 318 316 316 315 314 313 312 311 311 310 309 308 308 307 304 303 301 300 298 298 298 298 297 297 298 298 297 297 297 297 295 296 296 296 297 297 298 299
336 336 336 336 336 334 333 333 333 332 331 329 324 322 320 317 316 315 315 314 311 310 309 309 309 309 308 307 303 304 301 300 299 298 298 297 297 298 298 298 297 298 297 294 294 294 293 294 294 295 296 296
335 336 336 335 336 335 334 333 332 333 333 331 328 324 323 320 317 316 317 316 314 311 309 309 309 310 311 310 306 306 304 302 300 300 299 298 298 297 298 298 298 299 298 296 296 294 293 293 293 294 294 294
335 335 336 336 331 335 334 333 333 333 333 332 330 326 325 324 321 318 318 317 316 313 311 310 310 311 311 310 308 308 305 303 301 300 300 300 301 300 298 298 298 298 298 297 295 294 292 292 294 293 293 294
334 335 335 335 335 335 334 334 333 333 333 333 332 329 327 326 323 320 319 318 317 315 312 311 310 310 310 310 309 308 306 304 303 301 301 300 301 303 300 299 299 297 297 296 294 293 292 292 293 294 293 293
334 334 334 334 334 332 334 334 334 333 333 333 333 332 329 328 326 322 320 319 318 317 315 313 311 309 309 309 309 308 306 304 303 302 302 300 300 302 301 299 299 297 296 296 294 292 292 292 292 293 294 294
332 333 332 333 332 331 332 333 334 334 333 333 333 332 332 330 328 324 323 321 320 318 317 314 311 309 307 308 308 307 306 305 303 301 301 301 300 300 301 301 300 298 296 295 294 293 291 291 290 291 292 293
329 329 328 328 328 329 329 331 329 331 333 333 333 332 332 332 331 328 325 324 322 320 318 315 313 311 308 308 307 307 306 306 304 301 300 300 300 299 298 299 298 296 295 293 292 292 291 290 290 291 291 291
327 326 327 327 328 328 328 328 329 329 330 331 332 332 333 332 332 331 327 325 324 322 317 317 315 312 309 306 306 306 307 307 306 304 302 302 300 299 297 295 296 295 296 294 293 292 291 291 290 291 292 290
327 328 329 328 328 328 328 326 325 326 327 329 329 330 331 331 332 332 330 325 326 324 322 319 316 314 312 309 306 306 307 307 305 305 303 302 299 299 298 296 295 296 297 295 296 294 292 291 290 289 289 289
325 327 327 328 327 328 325 322 325 327 325 324 326 327 329 330 331 331 331 329 326 326 324 322 320 317 315 311 308 306 307 308 307 306 304 302 300 298 297 297 296 296 299 298 295 293 293 292 292 295 291 289
322 319 318 318 318 318 323 321 317 319 316 321 323 325 326 328 329 330 330 330 328 327 326 325 323 321 318 315 311 308 307 306 305 306 305 303 301 300 296 295 293 296 297 297 296 292 295 291 291 291 296 294
315 314 312 311 311 311 314 312 314 314 317 318 319 321 323 325 326 328 329 330 329 326 327 326 325 324 322 319 315 311 309 308 307 307 306 304 301 300 300 297 294 294 296 297 301 300 289 287 288 293 295 290
315 316 317 315 318 317 316 318 316 316 319 318 318 320 322 322 324 326 327 329 330 328 327 328 327 326 324 322 319 315 313 312 310 308 307 305 303 301 301 301 297 294 295 297 298 299 298 296 299 293 290 294
314 314 315 316 319 319 318 318 319 319 316 320 318 314 318 321 322 324 325 326 328 329 328 328 328 327 325 324 322 318 316 314 312 311 309 307 305 303 302 301 298 296 295 295 296 296 297 294 293 294 291 292

ECMWFFLT2_sfc_thetae_084.txt.gz
Theta_e
339 341 342 343 342 342 342 342 340 339 340 340 337 340 340 341 340 339 337 336 334 334 335 337 337 336 336 336 336 337 337 337 336 337 337 336 336 336 336 336 338 338 337 336 334 333 331 331 330 330 331 336
337 338 340 340 340 341 340 342 342 341 340 340 340 339 338 337 338 339 338 338 334 335 335 337 339 336 335 334 335 336 337 337 337 336 336 336 335 336 335 335 336 337 336 335 333 332 330 329 329 329 330 335
345 334 337 337 337 339 339 339 339 337 335 336 335 334 333 333 332 333 335 337 335 334 334 334 337 338 337 336 335 335 336 336 336 335 335 335 335 335 334 335 335 335 334 333 331 329 328 327 327 327 332 335
345 335 331 334 335 335 336 336 335 332 330 328 327 327 329 329 333 331 333 326 332 330 330 330 333 334 336 335 334 333 335 334 335 334 334 334 334 334 334 335 334 332 332 330 329 327 326 326 326 335 334 335
343 344 331 332 330 331 332 332 331 329 324 324 323 326 324 328 336 336 335 334 334 326 334 323 327 334 335 335 335 336 334 334 334 334 334 334 333 333 333 329 327 327 329 328 326 325 324 322 334 335 335 334
342 344 338 342 342 342 336 329 327 334 339 334 338 323 333 336 335 334 335 335 333 332 333 332 323 327 332 334 332 334 333 333 334 334 333 333 332 331 328 325 333 329 322 321 322 321 319 332 334 334 334 333
341 341 342 342 340 340 333 337 339 340 338 338 338 338 337 333 334 334 334 335 333 333 325 330 322 325 329 331 330 331 333 332 332 332 332 330 327 325 324 332 334 333 333 330 317 319 331 334 333 334 333 333
340 341 341 340 339 338 338 338 339 340 339 339 338 338 336 333 335 335 334 326 325 330 332 330 321 321 323 324 324 325 330 329 329 329 326 324 322 325 329 332 331 332 333 332 333 333 332 333 333 334 333 332
339 340 340 340 339 338 337 336 338 338 338 338 338 337 334 335 335 335 333 333 332 332 332 331 332 332 332 332 332 325 330 330 331 328 329 327 326 330 331 331 331 331 331 331 332 332 332 332 333 334 333 332
338 338 339 339 339 338 337 337 335 337 336 336 337 336 335 334 334 334 333 333 333 333 332 331 331 331 331 331 330 330 329 329 329 328 328 328 328 327 328 329 330 330 329 330 330 330 331 331 332 332 332 331
339 338 338 338 338 337 336 337 336 335 336 335 336 336 335 333 332 332 331 332 332 331 332 331 331 330 331 331 330 330 329 328 327 326 326 326 327 326 327 327 327 328 328 329 330 330 331 331 331 332 331 331
337 338 337 338 338 337 335 335 335 335 335 336 334 334 333 331 332 331 330 331 331 331 331 331 331 331 330 330 329 329 328 327 325 324 325 326 326 325 326 326 326 326 326 327 328 329 329 330 330 330 331 330
337 337 337 338 338 336 333 335 335 335 335 334 333 333 334 333 331 330 331 331 330 331 330 331 331 330 329 329 328 327 326 326 325 324 324 324 324 325 325 325 325 325 325 326 326 326 327 328 328 328 330 330
337 337 337 337 337 337 336 335 335 336 334 334 333 332 333 332 331 330 329 330 330 330 330 331 331 330 330 328 327 326 325 325 324 324 323 324 324 324 324 324 324 323 324 324 325 325 325 326 325 326 327 328
338 337 337 337 337 337 335 335 334 334 334 334 333 333 332 332 332 331 331 330 330 329 330 330 330 329 329 328 326 326 326 324 324 324 323 323 323 323 324 323 323 323 324 324 324 324 324 325 325 325 326 326
338 337 337 337 337 336 337 336 335 333 332 331 332 334 332 332 331 330 330 331 330 329 330 329 328 329 328 327 327 325 325 323 323 322 322 322 323 323 323 323 323 323 322 323 323 323 323 324 323 324 325 325
338 338 337 336 337 337 337 336 335 334 333 332 332 332 332 331 331 330 330 330 330 329 329 329 329 328 328 328 327 325 323 322 322 321 320 320 320 321 321 321 321 321 321 321 322 321 322 322 322 323 323 324
338 338 338 337 337 337 337 337 335 334 334 333 332 331 331 331 331 329 329 329 329 329 328 328 328 327 327 328 327 324 322 321 321 320 319 318 318 316 318 319 320 319 319 319 319 319 320 320 321 322 322 322
337 338 338 337 337 336 336 336 336 336 335 334 332 330 329 329 329 329 329 329 327 327 327 327 326 326 326 327 325 322 321 321 319 319 318 318 316 317 317 318 319 318 318 318 317 318 318 319 319 318 319 321
337 338 338 338 332 336 337 336 335 335 335 334 333 331 329 329 328 328 327 327 327 326 326 326 325 325 325 324 322 321 319 319 318 318 318 317 317 316 316 316 317 317 317 317 317 318 317 318 317 317 318 318
336 337 337 338 338 337 337 336 336 336 336 335 334 331 330 330 329 328 328 326 325 325 324 324 324 324 324 323 321 321 320 318 318 317 315 316 316 317 316 316 316 316 316 316 316 317 316 316 315 315 315 315
336 336 337 337 338 337 337 336 336 336 336 335 335 334 331 331 330 330 329 328 325 324 322 322 322 323 322 322 321 321 319 317 317 315 315 315 316 316 315 314 314 314 313 314 315 314 314 314 313 314 316 316
336 336 336 337 337 337 337 337 337 337 336 336 336 335 334 331 330 328 330 329 327 325 324 323 323 322 322 322 322 321 319 318 318 317 317 316 316 314 313 312 313 313 312 312 312 312 310 310 310 312 312 312
334 334 333 332 334 335 335 337 335 336 336 336 336 336 335 333 332 330 329 328 327 327 327 326 323 323 323 322 320 319 319 318 317 316 314 315 314 310 309 309 310 310 310 310 308 307 307 306 306 308 309 309
332 331 331 332 332 331 333 334 337 336 336 336 336 336 335 334 333 332 330 329 330 328 325 327 326 324 323 320 318 318 319 320 319 318 315 314 311 309 307 307 309 310 309 307 306 306 305 305 306 306 306 307
332 333 332 331 331 333 334 334 333 334 336 335 336 336 336 335 334 333 331 329 329 328 327 325 325 324 323 321 319 319 319 319 317 317 312 312 311 310 308 309 311 309 306 303 303 304 306 309 308 307 307 306
332 333 333 333 332 333 334 337 336 335 335 336 336 336 337 337 336 335 333 332 329 328 327 325 324 323 324 322 321 318 318 319 318 315 313 313 312 311 309 309 310 309 307 305 307 307 305 304 306 312 308 309
332 334 335 335 334 334 334 333 333 335 336 336 336 335 335 335 336 336 334 333 331 329 328 327 326 325 326 326 323 320 319 319 317 316 315 313 311 312 307 306 307 308 308 307 307 303 304 306 305 304 309 311
330 332 331 332 330 333 332 331 331 331 331 330 329 333 335 335 337 336 335 335 334 329 329 330 329 327 327 326 322 319 317 318 316 314 314 312 311 311 310 309 309 308 307 306 308 309 308 304 302 303 308 307
328 328 327 327 326 324 325 325 324 324 326 327 328 329 332 334 335 335 335 335 335 335 330 330 330 329 328 326 323 319 318 319 319 317 315 313 312 310 311 313 312 309 305 305 306 308 311 312 308 309 306 306
326 326 326 326 326 326 325 324 325 328 329 328 329 331 330 331 332 333 332 333 335 335 335 333 332 331 329 328 326 323 320 319 317 316 316 316 314 312 312 311 310 310 308 304 305 307 309 309 309 309 307 306

ECMWFFLT2_sfc_thetae_087.txt.gz
Theta_e
340 341 343 344 343 342 341 340 342 343 339 338 340 339 339 339 340 338 335 335 336 339 337 337 336 336 336 336 337 337 336 336 337 337 336 336 336 336 336 337 338 338 337 336 335 334 334 333 332 331 328 334
337 339 341 340 340 341 342 341 341 340 341 342 342 340 339 339 339 339 336 336 337 337 339 339 337 335 335 338 339 338 337 337 337 336 336 335 335 335 335 335 336 337 336 335 334 333 332 332 330 330 329 334
342 334 337 338 338 340 340 339 339 338 336 338 337 336 334 334 334 334 335 336 336 335 336 336 337 338 337 336 335 336 336 336 336 335 335 335 335 334 335 335 335 335 333 332 331 331 331 329 329 327 332 334
343 333 331 335 336 336 336 336 335 333 332 331 330 330 330 330 333 330 332 325 332 332 333 331 332 335 336 334 334 335 335 335 335 335 335 334 334 334 334 335 333 332 332 331 329 329 328 328 325 335 334 334
342 341 330 330 328 330 332 332 331 329 324 323 324 327 326 329 334 335 333 335 332 328 336 324 326 334 335 335 335 336 334 335 334 335 334 334 333 335 332 329 327 328 329 328 328 327 326 321 333 334 333 333
343 343 337 340 340 340 335 329 327 334 338 336 337 327 333 336 334 334 334 333 333 332 334 332 322 327 332 334 333 335 333 334 334 334 333 333 332 332 330 326 333 329 323 323 325 324 320 330 334 333 333 332
340 341 340 341 338 339 332 337 338 338 338 337 337 336 336 333 332 334 333 333 335 334 324 331 323 325 328 331 330 332 333 333 333 332 332 331 330 329 328 330 333 331 332 332 319 319 330 333 331 333 332 332
338 339 340 340 339 337 336 338 336 337 335 337 338 337 335 333 334 332 335 329 328 331 332 329 321 322 324 325 325 326 330 329 330 330 328 327 326 326 328 331 330 330 329 330 331 331 330 330 331 332 331 331
337 338 338 339 338 338 336 336 337 337 336 337 337 336 334 335 334 333 333 330 329 331 331 331 332 331 332 332 332 324 331 330 333 329 331 328 325 330 331 330 330 330 329 329 329 329 329 329 330 331 331 330
336 337 337 337 337 337 337 337 336 337 336 336 336 335 335 335 333 332 332 332 331 332 333 331 331 331 332 332 331 329 330 329 330 329 330 329 329 328 329 329 329 329 328 328 327 328 329 328 329 329 329 330
337 336 337 337 337 337 336 336 335 336 336 335 335 335 335 332 332 331 331 331 332 331 332 330 330 330 331 331 331 329 330 330 329 329 328 328 328 327 327 327 328 328 327 327 328 327 327 328 328 328 329 329
337 337 336 337 336 336 334 334 335 334 337 337 335 334 333 329 332 331 330 331 331 331 330 330 331 330 330 331 330 330 329 329 327 327 327 327 327 327 326 326 327 326 326 326 326 327 327 327 327 327 327 328
338 337 337 337 337 335 333 335 334 335 336 336 335 335 334 332 331 331 331 331 330 331 329 330 331 329 329 329 328 329 327 328 326 325 326 325 326 326 325 325 325 325 325 325 325 325 326 326 325 326 326 326
337 337 336 337 337 337 335 335 335 335 334 334 334 334 334 334 332 331 330 331 330 330 330 330 331 330 329 328 328 327 326 325 325 324 324 325 325 325 325 324 324 324 324 324 324 324 324 325 324 324 324 325
337 337 336 337 337 337 336 335 335 335 334 334 334 334 335 334 333 331 332 331 331 330 330 330 330 329 328 328 328 327 326 326 325 324 324 324 324 323 324 323 324 323 322 323 324 324 324 323 324 323 323 324
338 337 337 337 337 337 337 337 335 334 334 332 334 335 334 334 333 331 332 332 332 331 330 330 329 329 328 328 328 327 326 325 324 323 324 325 325 325 324 323 323 324 322 322 323 324 324 324 323 322 323 324
339 339 338 337 337 337 339 337 336 335 334 334 334 335 334 334 333 333 332 332 332 331 330 330 330 329 329 329 328 327 326 326 325 323 322 323 324 323 322 321 322 324 322 321 321 322 323 322 322 322 322 323
338 339 339 338 338 337 338 337 336 335 335 334 334 334 334 333 333 332 332 332 332 332 330 330 330 330 329 329 329 328 326 324 323 321 321 321 321 318 320 320 320 320 320 320 320 321 322 321 321 321 321 322
338 339 339 339 338 337 338 337 337 337 336 335 335 334 333 332 332 333 333 332 331 331 331 329 329 329 329 329 329 327 325 323 323 322 321 320 318 319 318 318 319 319 319 319 319 320 320 320 320 320 320 322
338 338 339 339 333 338 338 337 337 337 337 335 335 334 333 332 332 332 332 332 332 330 330 329 328 329 329 329 328 326 324 323 322 321 321 320 319 317 317 317 317 318 319 319 318 320 319 319 319 319 320 320
337 337 338 338 339 338 338 337 337 337 337 336 336 334 332 331 331 330 330 331 331 330 329 329 329 329 330 329 327 325 324 322 322 321 320 319 319 318 316 316 317 317 318 318 318 319 319 319 318 318 318 319
336 336 337 338 338 338 338 338 337 337 337 336 336 334 332 332 331 330 331 332 332 331 329 329 328 328 328 327 326 325 324 323 322 322 321 319 319 318 317 316 317 317 317 318 317 317 317 318 317 317 317 317
335 335 335 336 337 338 338 338 340 338 336 336 336 336 335 333 332 331 333 333 332 330 329 327 327 327 327 326 325 324 323 323 322 321 320 318 318 319 318 317 318 317 317 316 315 315 314 315 315 316 315 315
333 333 333 332 334 334 334 336 336 338 338 338 336 336 336 336 334 333 332 333 333 332 331 330 328 326 327 326 325 324 323 323 322 321 320 319 319 319 319 317 317 315 313 312 311 310 311 313 313 313 312 312
331 329 331 331 330 330 332 333 335 336 337 337 336 336 337 337 335 334 333 333 333 332 328 329 329 329 328 327 326 325 324 324 323 323 322 321 320 318 317 315 314 314 313 310 308 310 310 310 312 311 310 310
331 332 330 330 330 330 330 331 332 333 335 336 337 337 337 337 336 335 334 332 332 332 331 330 329 330 330 328 325 323 323 323 320 323 322 321 319 318 316 315 316 314 311 308 307 308 310 311 312 311 310 309
332 332 332 331 330 331 331 334 334 334 334 336 336 337 337 337 337 337 335 333 331 331 331 331 331 330 329 326 323 321 321 321 321 322 322 320 318 317 316 315 317 315 312 310 312 310 307 306 307 312 311 311
333 333 333 333 332 333 333 331 333 335 335 335 335 335 336 337 337 337 336 335 333 331 332 331 330 328 327 326 324 322 321 322 321 322 321 320 317 317 315 312 313 314 312 311 311 306 305 308 307 304 309 313
331 331 331 332 333 333 333 333 332 331 331 333 333 333 335 335 336 336 336 336 335 330 330 330 330 328 328 328 327 325 323 322 323 322 322 321 318 316 315 315 313 312 311 310 312 312 309 307 304 304 308 311
329 328 328 328 327 326 325 324 324 324 324 326 326 328 332 334 335 335 335 335 335 335 330 330 330 330 329 328 328 325 324 323 324 322 320 320 319 317 317 316 314 312 311 310 311 312 314 315 312 311 312 309
326 326 326 326 326 325 324 323 325 327 328 328 328 329 329 330 332 332 332 333 334 334 335 333 332 331 330 329 329 328 326 323 321 321 321 321 319 318 316 315 312 313 313 308 310 310 311 311 312 313 310 307